Weather History for K9V9 - January, 2012

Change the Weather History Date:

Friday, January 13, 2012

  Actual Average Record
Temperature  
Mean Temperature 18 °F -  
Max Temperature 33 °F 26 °F 46 °F (2004)
Min Temperature 3 °F 7 °F -20 °F (1998)
Degree Days  
Heating Degree Days 47    
Moisture  
Dew Point 14 °F    
Average Humidity 80    
Maximum Humidity 96    
Minimum Humidity 66    
Precipitation  
Precipitation 0.07 in - - ()
Sea Level Pressure  
Sea Level Pressure 30.01 in    
Wind  
Wind Speed 4 mph (WSW)    
Max Wind Speed 15 mph    
Max Gust Speed 23 mph    
Averages and records for this station are not official NWS values.
T = Trace of Precipitation, MM = Missing Value Source: NWS Daily Summary

Daily Weather History Graph

Daily Weather History Graph

Search for Another Location

Airport or City:

Trip Planner

Search our weather history database for the weather conditions in past years. The results will help you decide how hot, cold, wet, or windy it might be!

Date:

Astronomy

Jan. 13, 2012 Rise Set
Actual Time 8:09 AM CST 5:22 PM CST
Civil Twilight 7:37 AM CST 5:54 PM CST
Nautical Twilight 7:01 AM CST 6:30 PM CST
Astronomical Twilight 6:26 AM CST 7:05 PM CST
Moon 10:49 PM CST (1/13) 10:13 AM CST (1/13)
Length of Visible Light 10h 17m
Length of Day
9h 13m
Waning Gibbous, 78% of the Moon is Illuminated
Jan 13
Waning Gibbous
Jan 16
Last Quarter
Jan 23
New
Jan 30
First Quarter
Feb 7
Full

Hourly Weather History & Observations

Time (CST) Temp. Windchill Dew Point Humidity Pressure Visibility Wind Dir Wind Speed Gust Speed Precip Events Conditions
12:52 AM 5.0 °F - -2.0 °F 73% 30.13 in - Calm Calm - N/A   Unknown
1:52 AM 6.1 °F -2.8 °F -2.9 °F 67% 30.11 in - NNW 4.6 mph - N/A   Unknown
2:52 AM 5.0 °F -4.1 °F -4.0 °F 66% 30.11 in - West 4.6 mph - N/A   Unknown
3:52 AM 5.0 °F -5.6 °F -0.9 °F 76% 30.11 in - West 5.8 mph - N/A   Unknown
4:52 AM 5.0 °F -2.1 °F -0.9 °F 76% 30.10 in - WSW 3.5 mph - N/A   Unknown
5:52 AM 3.9 °F -3.4 °F -2.0 °F 76% 30.10 in - SW 3.5 mph - N/A   Unknown
6:52 AM 3.0 °F -6.4 °F -0.9 °F 84% 30.10 in - WSW 4.6 mph - N/A   Unknown
7:52 AM 8.1 °F 1.4 °F 3.9 °F 83% 30.08 in - West 3.5 mph - N/A   Unknown
8:52 AM 10.9 °F 4.7 °F 7.0 °F 84% 30.08 in - WSW 3.5 mph - N/A   Unknown
9:52 AM 12.9 °F 6.9 °F 10.0 °F 88% 30.08 in - SW 3.5 mph - N/A   Unknown
10:52 AM 19.0 °F 12.3 °F 14.0 °F 81% 30.07 in - West 4.6 mph - N/A   Unknown
11:52 AM 23.0 °F 17.0 °F 17.1 °F 78% 30.04 in - West 4.6 mph - N/A   Unknown
1:52 PM 30.9 °F 24.3 °F 23.0 °F 72% 29.96 in - West 6.9 mph - N/A   Unknown
2:52 PM 32.0 °F 26.4 °F 23.0 °F 69% 29.93 in - SW 5.8 mph - N/A   Unknown
3:52 PM 33.1 °F 26.9 °F 24.1 °F 70% 29.92 in - SW 6.9 mph - 0.01 in   Unknown
4:52 PM 33.1 °F 30.0 °F 24.1 °F 70% 29.92 in - South 3.5 mph - N/A   Unknown
5:52 PM 32.0 °F 26.4 °F 25.0 °F 75% 29.92 in - SSE 5.8 mph - N/A   Unknown
6:52 PM 30.9 °F 26.2 °F 26.1 °F 82% 29.92 in - SE 4.6 mph - N/A   Unknown
7:52 PM 28.9 °F 21.1 °F 27.0 °F 92% 29.90 in - SSE 8.1 mph - 0.03 in   Unknown
8:52 PM 28.9 °F 23.9 °F 27.0 °F 92% 29.91 in - South 4.6 mph - 0.01 in   Unknown
9:52 PM 30.0 °F 22.4 °F 28.9 °F 96% 29.91 in - West 8.1 mph - N/A   Unknown
10:52 PM 32.0 °F 23.6 °F 28.9 °F 88% 29.94 in - NW 10.4 mph - 0.01 in   Unknown
11:52 PM 32.0 °F 21.6 °F 30.0 °F 92% 29.96 in - NNW 15.0 mph 23.0 mph 0.01 in   Unknown